| time (UTC) | temp F | wind direction | speed MPH | gust MPH | rain 1hr in | rain 24hr in | rain mn in | humidity % | barometer mb |
| 20260510201717 | 47 | 308 | 1.0 | 3.0 | 0.00 | 0.00 | 0.00 | 58 | 1016.3 |
| 20260510201003 | 47 | 303 | 1.0 | 4.0 | 0.00 | 0.00 | 0.00 | 58 | 1016.2 |
| 20260510200503 | 47 | 306 | 1.0 | 4.0 | 0.00 | 0.00 | 0.00 | 58 | 1016.2 |
| 20260510200003 | 47 | 312 | 1.0 | 2.0 | 0.00 | 0.00 | 0.00 | 59 | 1016.1 |
| 20260510195717 | 47 | 316 | 1.0 | 2.0 | 0.00 | 0.00 | 0.00 | 57 | 1016.3 |
| 20260510195003 | 48 | 309 | 1.0 | 2.0 | 0.00 | 0.00 | 0.00 | 58 | 1016.1 |
| 20260510194503 | 48 | 300 | 1.0 | 2.0 | 0.00 | 0.00 | 0.00 | 56 | 1016.3 |
| 20260510194003 | 48 | 306 | 1.0 | 3.0 | 0.00 | 0.00 | 0.00 | 56 | 1016.2 |
| 20260510193503 | 49 | 312 | 1.0 | 3.0 | 0.00 | 0.00 | 0.00 | 54 | 1016.1 |
| 20260510193003 | 49 | 298 | 1.0 | 3.0 | 0.00 | 0.00 | 0.00 | 54 | 1016.2 |
| 20260510192503 | 49 | 290 | 1.0 | 3.0 | 0.00 | 0.00 | 0.00 | 54 | 1016.3 |
| 20260510192003 | 50 | 295 | 1.0 | 3.0 | 0.00 | 0.00 | 0.00 | 52 | 1016.1 |
| 20260510191504 | 50 | 300 | 1.0 | 2.0 | 0.00 | 0.00 | 0.00 | 53 | 1016.1 |
| 20260510191003 | 50 | 296 | 1.0 | 3.0 | 0.00 | 0.00 | 0.00 | 52 | 1016.2 |
| 20260510190503 | 50 | 290 | 1.0 | 3.0 | 0.00 | 0.00 | 0.00 | 52 | 1016.3 |
| 20260510190003 | 51 | 299 | 1.0 | 2.0 | 0.00 | 0.00 | 0.00 | 51 | 1016.2 |
| 20260510185503 | 51 | 295 | 1.0 | 2.0 | 0.00 | 0.00 | 0.00 | 51 | 1016.2 |
| 20260510185003 | 51 | 273 | 1.0 | 3.0 | 0.00 | 0.00 | 0.00 | 51 | 1016.0 |
| 20260510184503 | 52 | 283 | 1.0 | 3.0 | 0.00 | 0.00 | 0.00 | 52 | 1016.2 |
| 20260510184003 | 52 | 300 | 1.0 | 3.0 | 0.00 | 0.00 | 0.00 | 52 | 1016.2 |
| 20260510183503 | 52 | 291 | 1.0 | 3.0 | 0.00 | 0.00 | 0.00 | 51 | 1016.1 |
| 20260510183217 | 52 | 286 | 1.0 | 3.0 | 0.00 | 0.00 | 0.00 | 53 | 1016.0 |
| 20260510182503 | 53 | 281 | 1.0 | 3.0 | 0.00 | 0.00 | 0.00 | 53 | 1016.2 |
| 20260510182003 | 53 | 293 | 1.0 | 4.0 | 0.00 | 0.00 | 0.00 | 54 | 1016.0 |
| 20260510181503 | 53 | 266 | 1.0 | 4.0 | 0.00 | 0.00 | 0.00 | 52 | 1015.8 |
| 20260510181003 | 54 | 255 | 1.0 | 4.0 | 0.00 | 0.00 | 0.00 | 51 | 1016.0 |
| 20260510180503 | 54 | 293 | 1.0 | 3.0 | 0.00 | 0.00 | 0.00 | 52 | 1016.0 |
| 20260510180003 | 54 | 309 | 1.0 | 6.0 | 0.00 | 0.00 | 0.00 | 53 | 1016.1 |
| 20260510175718 | 54 | 309 | 1.0 | 6.0 | 0.00 | 0.00 | 0.00 | 53 | 1016.2 |
| 20260510175003 | 55 | 349 | 1.0 | 4.0 | 0.00 | 0.00 | 0.00 | 50 | 1016.0 |
| 20260510174503 | 55 | 333 | 1.0 | 4.0 | 0.00 | 0.00 | 0.00 | 51 | 1016.0 |
| 20260510174003 | 55 | 347 | 1.0 | 4.0 | 0.00 | 0.00 | 0.00 | 54 | 1016.1 |
| 20260510173503 | 56 | 360 | 1.0 | 3.0 | 0.00 | 0.00 | 0.00 | 52 | 1016.1 |
| 20260510173217 | 56 | 325 | 1.0 | 3.0 | 0.00 | 0.00 | 0.00 | 52 | 1016.0 |
| 20260510172503 | 56 | 276 | 2.0 | 5.0 | 0.00 | 0.00 | 0.00 | 50 | 1015.9 |
| 20260510172003 | 56 | 276 | 2.0 | 5.0 | 0.00 | 0.00 | 0.00 | 50 | 1016.1 |
| 20260510171503 | 57 | 275 | 2.0 | 6.0 | 0.00 | 0.00 | 0.00 | 50 | 1016.0 |
| 20260510171003 | 57 | 291 | 2.0 | 6.0 | 0.00 | 0.00 | 0.00 | 50 | 1016.2 |
| 20260510170503 | 58 | 288 | 2.0 | 5.0 | 0.00 | 0.00 | 0.00 | 50 | 1016.4 |
| 20260510170217 | 58 | 280 | 2.0 | 5.0 | 0.00 | 0.00 | 0.00 | 47 | 1016.4 |
| 20260510165503 | 58 | 283 | 2.0 | 5.0 | 0.00 | 0.00 | 0.00 | 48 | 1016.4 |
| 20260510165003 | 58 | 326 | 2.0 | 4.0 | 0.00 | 0.00 | 0.00 | 47 | 1016.2 |
| 20260510164503 | 58 | 340 | 2.0 | 4.0 | 0.00 | 0.00 | 0.00 | 49 | 1016.1 |
| 20260510164003 | 58 | 270 | 2.0 | 6.0 | 0.00 | 0.00 | 0.00 | 48 | 1016.4 |
| 20260510163503 | 59 | 261 | 2.0 | 6.0 | 0.00 | 0.00 | 0.00 | 47 | 1016.2 |
| 20260510163003 | 59 | 256 | 2.0 | 6.0 | 0.00 | 0.00 | 0.00 | 47 | 1016.1 |
| 20260510162503 | 59 | 275 | 2.0 | 5.0 | 0.00 | 0.00 | 0.00 | 46 | 1016.2 |
| 20260510162217 | 59 | 287 | 1.0 | 4.0 | 0.00 | 0.00 | 0.00 | 47 | 1016.4 |
| 20260510161503 | 58 | 248 | 2.0 | 6.0 | 0.00 | 0.00 | 0.00 | 46 | 1016.3 |
| 20260510161003 | 58 | 254 | 3.0 | 6.0 | 0.00 | 0.00 | 0.00 | 47 | 1016.4 |
| 20260510160504 | 57 | 271 | 2.0 | 5.0 | 0.00 | 0.00 | 0.00 | 49 | 1016.6 |
| 20260510160003 | 58 | 269 | 2.0 | 4.0 | 0.00 | 0.00 | 0.00 | 46 | 1016.7 |
| 20260510155503 | 59 | 268 | 2.0 | 5.0 | 0.00 | 0.00 | 0.00 | 47 | 1016.9 |
| 20260510155003 | 59 | 254 | 2.0 | 5.0 | 0.00 | 0.00 | 0.00 | 44 | 1016.5 |
| 20260510154503 | 59 | 242 | 3.0 | 8.0 | 0.00 | 0.00 | 0.00 | 40 | 1016.8 |
| 20260510154003 | 61 | 253 | 3.0 | 8.0 | 0.00 | 0.00 | 0.00 | 41 | 1016.8 |
| 20260510153503 | 62 | 261 | 3.0 | 8.0 | 0.00 | 0.00 | 0.00 | 40 | 1016.6 |
| 20260510153003 | 61 | 254 | 3.0 | 6.0 | 0.00 | 0.00 | 0.00 | 43 | 1016.8 |
| 20260510152503 | 61 | 243 | 2.0 | 6.0 | 0.00 | 0.00 | 0.00 | 41 | 1017.1 |
| 20260510152003 | 59 | 260 | 2.0 | 5.0 | 0.00 | 0.00 | 0.00 | 43 | 1017.0 |
| 20260510151503 | 61 | 227 | 2.0 | 7.0 | 0.00 | 0.00 | 0.00 | 41 | 1017.1 |
| 20260510151003 | 62 | 212 | 3.0 | 7.0 | 0.00 | 0.00 | 0.00 | 39 | 1017.0 |
| 20260510150503 | 61 | 245 | 3.0 | 9.0 | 0.00 | 0.00 | 0.00 | 41 | 1017.1 |
| 20260510150004 | 62 | 248 | 3.0 | 9.0 | 0.00 | 0.00 | 0.00 | 41 | 1017.1 |
| 20260510145503 | 61 | 249 | 3.0 | 9.0 | 0.00 | 0.00 | 0.00 | 40 | 1017.2 |
| 20260510145218 | 62 | 250 | 3.0 | 9.0 | 0.00 | 0.00 | 0.00 | 39 | 1017.2 |
| 20260510144503 | 61 | 243 | 3.0 | 9.0 | 0.00 | 0.00 | 0.00 | 39 | 1017.0 |
| 20260510144003 | 61 | 238 | 3.0 | 9.0 | 0.00 | 0.00 | 0.00 | 40 | 1017.2 |
| 20260510143503 | 62 | 245 | 3.0 | 8.0 | 0.00 | 0.00 | 0.00 | 38 | 1017.3 |
| 20260510143003 | 61 | 251 | 4.0 | 13.0 | 0.00 | 0.00 | 0.00 | 39 | 1017.1 |
| 20260510142503 | 60 | 249 | 4.0 | 13.0 | 0.00 | 0.00 | 0.00 | 39 | 1017.4 |
| 20260510142003 | 62 | 246 | 4.0 | 6.0 | 0.00 | 0.00 | 0.00 | 35 | 1017.4 |
| 20260510141503 | 61 | 249 | 4.0 | 7.0 | 0.00 | 0.00 | 0.00 | 38 | 1017.7 |
| 20260510141003 | 63 | 248 | 3.0 | 7.0 | 0.00 | 0.00 | 0.00 | 37 | 1017.4 |
| 20260510140503 | 63 | 241 | 3.0 | 7.0 | 0.00 | 0.00 | 0.00 | 37 | 1017.4 |
| 20260510140007 | 62 | 237 | 3.0 | 6.0 | 0.00 | 0.00 | 0.00 | 39 | 1017.6 |
| 20260510135717 | 60 | 233 | 3.0 | 7.0 | 0.00 | 0.00 | 0.00 | 39 | 1017.8 |
| 20260510135003 | 61 | 233 | 3.0 | 7.0 | 0.00 | 0.00 | 0.00 | 38 | 1017.6 |
| 20260510134503 | 60 | 239 | 3.0 | 9.0 | 0.00 | 0.00 | 0.00 | 38 | 1017.7 |
| 20260510134003 | 61 | 248 | 4.0 | 9.0 | 0.00 | 0.00 | 0.00 | 40 | 1017.8 |
| 20260510133504 | 58 | 250 | 3.0 | 9.0 | 0.00 | 0.00 | 0.00 | 43 | 1017.8 |
| 20260510133217 | 60 | 247 | 4.0 | 9.0 | 0.00 | 0.00 | 0.00 | 41 | 1017.9 |
| 20260510132503 | 60 | 248 | 3.0 | 8.0 | 0.00 | 0.00 | 0.00 | 41 | 1017.9 |
| 20260510132005 | 60 | 230 | 3.0 | 9.0 | 0.00 | 0.00 | 0.00 | 41 | 1017.9 |
| 20260510131503 | 63 | 222 | 3.0 | 9.0 | 0.00 | 0.00 | 0.00 | 38 | 1018.0 |
| 20260510131003 | 61 | 229 | 3.0 | 6.0 | 0.00 | 0.00 | 0.00 | 39 | 1018.0 |
| 20260510130503 | 60 | 234 | 3.0 | 6.0 | 0.00 | 0.00 | 0.00 | 41 | 1018.2 |
| 20260510130003 | 61 | 251 | 3.0 | 7.0 | 0.00 | 0.00 | 0.00 | 39 | 1018.1 |
| 20260510125506 | 60 | 243 | 4.0 | 13.0 | 0.00 | 0.00 | 0.00 | 45 | 1018.2 |
| 20260510125004 | 63 | 228 | 4.0 | 13.0 | 0.00 | 0.00 | 0.00 | 41 | 1018.3 |
| 20260510124503 | 62 | 229 | 3.0 | 8.0 | 0.00 | 0.00 | 0.00 | 42 | 1018.2 |
| 20260510124003 | 59 | 235 | 3.0 | 6.0 | 0.00 | 0.00 | 0.00 | 45 | 1018.2 |
| 20260510123503 | 59 | 229 | 3.0 | 9.0 | 0.00 | 0.00 | 0.00 | 44 | 1018.5 |
| 20260510123005 | 58 | 222 | 3.0 | 9.0 | 0.00 | 0.00 | 0.00 | 43 | 1018.3 |
| 20260510122503 | 61 | 227 | 3.0 | 7.0 | 0.00 | 0.00 | 0.00 | 45 | 1018.5 |
| 20260510122003 | 61 | 229 | 3.0 | 8.0 | 0.00 | 0.00 | 0.00 | 44 | 1018.7 |
| 20260510121503 | 61 | 232 | 3.0 | 11.0 | 0.00 | 0.00 | 0.00 | 43 | 1018.6 |
| 20260510121003 | 61 | 235 | 3.0 | 11.0 | 0.00 | 0.00 | 0.00 | 44 | 1018.5 |
| 20260510120503 | 60 | 232 | 3.0 | 10.0 | 0.00 | 0.00 | 0.00 | 44 | 1018.9 |
| 20260510120003 | 59 | 224 | 3.0 | 8.0 | 0.00 | 0.00 | 0.00 | 44 | 1018.8 |
| 20260510115503 | 59 | 217 | 3.0 | 8.0 | 0.00 | 0.00 | 0.00 | 46 | 1018.8 |
| 20260510115003 | 60 | 220 | 3.0 | 8.0 | 0.00 | 0.00 | 0.00 | 46 | 1018.8 |
| 20260510114503 | 59 | 225 | 3.0 | 6.0 | 0.00 | 0.00 | 0.00 | 48 | 1018.6 |
| 20260510114217 | 59 | 222 | 3.0 | 6.0 | 0.00 | 0.00 | 0.00 | 46 | 1018.8 |
| 20260510113718 | 58 | 220 | 3.0 | 8.0 | 0.00 | 0.00 | 0.00 | 49 | 1018.8 |
| 20260510113003 | 59 | 224 | 3.0 | 8.0 | 0.00 | 0.00 | 0.00 | 48 | 1018.8 |
| 20260510112503 | 60 | 229 | 3.0 | 8.0 | 0.00 | 0.00 | 0.00 | 45 | 1019.1 |
| 20260510112003 | 60 | 226 | 3.0 | 8.0 | 0.00 | 0.00 | 0.00 | 45 | 1019.1 |
| 20260510111503 | 60 | 220 | 3.0 | 6.0 | 0.00 | 0.00 | 0.00 | 47 | 1019.1 |
| 20260510111003 | 60 | 222 | 3.0 | 8.0 | 0.00 | 0.00 | 0.00 | 47 | 1019.2 |
| 20260510110503 | 60 | 221 | 3.0 | 8.0 | 0.00 | 0.00 | 0.00 | 47 | 1019.4 |
| 20260510110003 | 59 | 216 | 3.0 | 8.0 | 0.00 | 0.00 | 0.00 | 47 | 1019.4 |
| 20260510105503 | 59 | 215 | 3.0 | 8.0 | 0.00 | 0.00 | 0.00 | 49 | 1019.4 |
| 20260510105003 | 56 | 223 | 3.0 | 8.0 | 0.00 | 0.00 | 0.00 | 52 | 1019.5 |
| 20260510104503 | 56 | 223 | 3.0 | 8.0 | 0.00 | 0.00 | 0.00 | 53 | 1019.2 |
| 20260510104003 | 56 | 218 | 3.0 | 7.0 | 0.00 | 0.00 | 0.00 | 54 | 1019.6 |
| 20260510103503 | 59 | 218 | 3.0 | 7.0 | 0.00 | 0.00 | 0.00 | 50 | 1019.5 |
| 20260510103003 | 59 | 220 | 3.0 | 7.0 | 0.00 | 0.00 | 0.00 | 49 | 1019.7 |
| 20260510102503 | 58 | 223 | 3.0 | 9.0 | 0.00 | 0.00 | 0.00 | 51 | 1019.6 |
| 20260510102003 | 58 | 221 | 4.0 | 11.0 | 0.00 | 0.00 | 0.00 | 52 | 1019.6 |
| 20260510101503 | 58 | 222 | 3.0 | 11.0 | 0.00 | 0.00 | 0.00 | 52 | 1019.7 |
| 20260510101003 | 58 | 230 | 3.0 | 8.0 | 0.00 | 0.00 | 0.00 | 51 | 1019.8 |
| 20260510100503 | 57 | 235 | 3.0 | 7.0 | 0.00 | 0.00 | 0.00 | 54 | 1019.6 |
| 20260510100003 | 57 | 230 | 3.0 | 6.0 | 0.00 | 0.00 | 0.00 | 54 | 1019.6 |
| 20260510095503 | 57 | 222 | 4.0 | 8.0 | 0.00 | 0.00 | 0.00 | 53 | 1019.7 |
| 20260510095003 | 56 | 219 | 3.0 | 8.0 | 0.00 | 0.00 | 0.00 | 53 | 1020.0 |
| 20260510094503 | 57 | 212 | 3.0 | 8.0 | 0.00 | 0.00 | 0.00 | 57 | 1020.1 |
| 20260510094003 | 55 | 215 | 3.0 | 10.0 | 0.00 | 0.00 | 0.00 | 58 | 1020.0 |
| 20260510093503 | 54 | 224 | 3.0 | 11.0 | 0.00 | 0.00 | 0.00 | 60 | 1020.1 |
| 20260510093003 | 56 | 228 | 3.0 | 11.0 | 0.00 | 0.00 | 0.00 | 57 | 1020.2 |
| 20260510092504 | 56 | 227 | 3.0 | 8.0 | 0.00 | 0.00 | 0.00 | 58 | 1020.0 |
| 20260510092003 | 57 | 229 | 3.0 | 8.0 | 0.00 | 0.00 | 0.00 | 56 | 1020.2 |
| 20260510091503 | 55 | 231 | 3.0 | 7.0 | 0.00 | 0.00 | 0.00 | 58 | 1020.0 |
| 20260510091003 | 55 | 227 | 3.0 | 7.0 | 0.00 | 0.00 | 0.00 | 60 | 1020.1 |
| 20260510090503 | 56 | 223 | 3.0 | 7.0 | 0.00 | 0.00 | 0.00 | 60 | 1020.3 |
| 20260510090003 | 55 | 218 | 3.0 | 6.0 | 0.00 | 0.00 | 0.00 | 59 | 1020.1 |
| 20260510085503 | 55 | 222 | 3.0 | 6.0 | 0.00 | 0.00 | 0.00 | 60 | 1020.3 |
| 20260510085003 | 54 | 236 | 3.0 | 8.0 | 0.00 | 0.00 | 0.00 | 63 | 1020.3 |
| 20260510084504 | 54 | 236 | 4.0 | 8.0 | 0.00 | 0.00 | 0.00 | 62 | 1020.2 |
| 20260510084003 | 54 | 232 | 3.0 | 6.0 | 0.00 | 0.00 | 0.00 | 61 | 1020.4 |
| 20260510083503 | 54 | 240 | 3.0 | 8.0 | 0.00 | 0.00 | 0.00 | 63 | 1020.1 |
| 20260510083003 | 53 | 231 | 3.0 | 8.0 | 0.00 | 0.00 | 0.00 | 63 | 1020.1 |
| 20260510082503 | 54 | 223 | 3.0 | 6.0 | 0.00 | 0.00 | 0.00 | 62 | 1020.4 |
| 20260510082217 | 54 | 225 | 3.0 | 6.0 | 0.00 | 0.00 | 0.00 | 63 | 1020.1 |
| 20260510081503 | 53 | 228 | 3.0 | 6.0 | 0.00 | 0.00 | 0.00 | 63 | 1020.3 |
| 20260510081003 | 52 | 242 | 3.0 | 7.0 | 0.00 | 0.00 | 0.00 | 66 | 1020.1 |
| 20260510080503 | 52 | 236 | 3.0 | 7.0 | 0.00 | 0.00 | 0.00 | 66 | 1020.3 |
| 20260510080004 | 52 | 229 | 3.0 | 6.0 | 0.00 | 0.00 | 0.00 | 66 | 1020.1 |
| 20260510075503 | 52 | 232 | 2.0 | 6.0 | 0.00 | 0.00 | 0.00 | 67 | 1020.3 |
| 20260510075003 | 51 | 231 | 2.0 | 5.0 | 0.00 | 0.00 | 0.00 | 69 | 1020.2 |
| 20260510074503 | 50 | 240 | 2.0 | 6.0 | 0.00 | 0.00 | 0.00 | 70 | 1020.2 |
| 20260510074003 | 50 | 256 | 2.0 | 6.0 | 0.00 | 0.00 | 0.00 | 71 | 1020.5 |
| 20260510073503 | 50 | 267 | 3.0 | 6.0 | 0.00 | 0.00 | 0.00 | 73 | 1020.5 |
| 20260510073003 | 48 | 268 | 3.0 | 9.0 | 0.00 | 0.00 | 0.00 | 74 | 1020.3 |
| 20260510072503 | 49 | 257 | 2.0 | 9.0 | 0.00 | 0.00 | 0.00 | 74 | 1020.4 |
| 20260510072003 | 48 | 243 | 2.0 | 5.0 | 0.00 | 0.00 | 0.00 | 75 | 1020.5 |
| 20260510071503 | 48 | 243 | 2.0 | 5.0 | 0.00 | 0.00 | 0.00 | 74 | 1020.3 |
| 20260510071003 | 48 | 251 | 2.0 | 5.0 | 0.00 | 0.00 | 0.00 | 74 | 1020.2 |
| 20260510070503 | 48 | 259 | 2.0 | 5.0 | 0.00 | 0.00 | 0.00 | 74 | 1020.5 |
| 20260510070003 | 48 | 251 | 2.0 | 6.0 | 0.00 | 0.00 | 0.00 | 75 | 1020.4 |
| 20260510065718 | 48 | 243 | 2.0 | 6.0 | 0.00 | 0.00 | 0.00 | 76 | 1020.4 |
| 20260510065003 | 48 | 254 | 2.0 | 5.0 | 0.00 | 0.00 | 0.00 | 75 | 1020.4 |
| 20260510064503 | 48 | 265 | 2.0 | 4.0 | 0.00 | 0.00 | 0.00 | 76 | 1020.5 |
| 20260510064003 | 48 | 262 | 2.0 | 4.0 | 0.00 | 0.00 | 0.00 | 77 | 1020.3 |
| 20260510063503 | 47 | 259 | 2.0 | 5.0 | 0.00 | 0.00 | 0.00 | 77 | 1020.4 |
| 20260510063003 | 47 | 267 | 2.0 | 5.0 | 0.00 | 0.00 | 0.00 | 78 | 1020.2 |
| 20260510062503 | 47 | 270 | 1.0 | 4.0 | 0.00 | 0.00 | 0.00 | 78 | 1020.2 |
| 20260510062217 | 47 | 274 | 1.0 | 4.0 | 0.00 | 0.00 | 0.00 | 79 | 1020.2 |
| 20260510061503 | 46 | 283 | 1.0 | 4.0 | 0.00 | 0.00 | 0.00 | 79 | 1020.3 |
| 20260510061003 | 46 | 284 | 1.0 | 4.0 | 0.00 | 0.00 | 0.00 | 80 | 1020.0 |
| 20260510060503 | 46 | 294 | 1.0 | 3.0 | 0.00 | 0.00 | 0.00 | 80 | 1020.3 |
| 20260510060003 | 46 | 296 | 1.0 | 4.0 | 0.00 | 0.00 | 0.00 | 79 | 1020.2 |
| 20260510055718 | 46 | 279 | 1.0 | 4.0 | 0.00 | 0.00 | 0.00 | 79 | 1020.2 |
| 20260510055003 | 46 | 247 | 2.0 | 4.0 | 0.00 | 0.00 | 0.00 | 79 | 1020.2 |
| 20260510054503 | 46 | 273 | 1.0 | 4.0 | 0.00 | 0.00 | 0.00 | 79 | 1020.2 |
| 20260510054003 | 46 | 276 | 1.0 | 3.0 | 0.00 | 0.00 | 0.00 | 79 | 1020.2 |
| 20260510053503 | 47 | 248 | 1.0 | 4.0 | 0.00 | 0.00 | 0.00 | 79 | 1019.9 |
| 20260510053003 | 47 | 249 | 1.0 | 4.0 | 0.00 | 0.00 | 0.00 | 79 | 1020.1 |
| 20260510052503 | 46 | 269 | 1.0 | 4.0 | 0.00 | 0.00 | 0.00 | 79 | 1020.1 |
| 20260510052003 | 46 | 271 | 1.0 | 3.0 | 0.00 | 0.00 | 0.00 | 80 | 1020.1 |
| 20260510051503 | 47 | 266 | 1.0 | 3.0 | 0.00 | 0.00 | 0.00 | 80 | 1020.2 |
| 20260510051003 | 47 | 257 | 1.0 | 3.0 | 0.00 | 0.00 | 0.00 | 79 | 1020.2 |
| 20260510050503 | 47 | 232 | 1.0 | 4.0 | 0.00 | 0.00 | 0.00 | 79 | 1020.2 |
| 20260510050003 | 47 | 224 | 1.0 | 4.0 | 0.00 | 0.00 | 0.00 | 79 | 1020.0 |
| 20260510045503 | 47 | 260 | 1.0 | 3.0 | 0.00 | 0.00 | 0.00 | 79 | 1020.2 |
| 20260510045003 | 47 | 280 | 1.0 | 3.0 | 0.00 | 0.00 | 0.00 | 80 | 1020.1 |
| 20260510044503 | 47 | 282 | 1.0 | 3.0 | 0.00 | 0.00 | 0.00 | 80 | 1020.2 |
| 20260510044216 | 47 | 279 | 1.0 | 3.0 | 0.00 | 0.00 | 0.00 | 80 | 1020.1 |
| 20260510043503 | 47 | 294 | 1.0 | 3.0 | 0.00 | 0.00 | 0.00 | 80 | 1020.5 |
| 20260510043003 | 47 | 295 | 1.0 | 3.0 | 0.00 | 0.00 | 0.00 | 79 | 1020.2 |
| 20260510042503 | 47 | 297 | 1.0 | 3.0 | 0.00 | 0.00 | 0.00 | 79 | 1020.2 |
| 20260510042003 | 47 | 288 | 1.0 | 2.0 | 0.00 | 0.00 | 0.00 | 79 | 1020.2 |
| 20260510041503 | 47 | 273 | 1.0 | 3.0 | 0.00 | 0.00 | 0.00 | 79 | 1020.0 |
| 20260510041218 | 47 | 269 | 1.0 | 4.0 | 0.00 | 0.00 | 0.00 | 78 | 1020.1 |
| 20260510040503 | 47 | 273 | 1.0 | 4.0 | 0.00 | 0.00 | 0.00 | 79 | 1020.2 |
| 20260510040218 | 47 | 275 | 1.0 | 3.0 | 0.00 | 0.00 | 0.00 | 79 | 1020.3 |
| 20260510035503 | 47 | 277 | 1.0 | 3.0 | 0.00 | 0.00 | 0.00 | 78 | 1020.4 |
| 20260510035003 | 47 | 277 | 1.0 | 3.0 | 0.00 | 0.00 | 0.00 | 78 | 1020.4 |
| 20260510034503 | 47 | 278 | 1.0 | 3.0 | 0.00 | 0.00 | 0.00 | 78 | 1020.5 |
| 20260510034218 | 48 | 270 | 1.0 | 3.0 | 0.00 | 0.00 | 0.00 | 77 | 1020.5 |
| 20260510033717 | 48 | 269 | 1.0 | 3.0 | 0.00 | 0.00 | 0.00 | 77 | 1020.4 |
| 20260510033003 | 48 | 271 | 1.0 | 3.0 | 0.00 | 0.00 | 0.00 | 77 | 1020.5 |
| 20260510032503 | 48 | 262 | 1.0 | 4.0 | 0.00 | 0.00 | 0.00 | 77 | 1020.5 |
| 20260510032003 | 48 | 275 | 1.0 | 4.0 | 0.00 | 0.00 | 0.00 | 77 | 1020.5 |
| 20260510031503 | 48 | 275 | 1.0 | 3.0 | 0.00 | 0.00 | 0.00 | 77 | 1020.4 |
| 20260510031003 | 48 | 258 | 1.0 | 3.0 | 0.00 | 0.00 | 0.00 | 77 | 1020.7 |
| 20260510030503 | 48 | 262 | 1.0 | 3.0 | 0.00 | 0.00 | 0.00 | 77 | 1020.6 |
| 20260510030217 | 48 | 267 | 1.0 | 3.0 | 0.00 | 0.00 | 0.00 | 77 | 1020.7 |
| 20260510025503 | 48 | 268 | 1.0 | 3.0 | 0.00 | 0.00 | 0.00 | 77 | 1020.8 |
| 20260510025003 | 48 | 272 | 1.0 | 3.0 | 0.00 | 0.00 | 0.00 | 77 | 1020.8 |
| 20260510024503 | 48 | 273 | 1.0 | 4.0 | 0.00 | 0.00 | 0.00 | 77 | 1020.7 |
| 20260510024003 | 48 | 258 | 1.0 | 4.0 | 0.00 | 0.00 | 0.00 | 77 | 1020.8 |
| 20260510023503 | 48 | 260 | 1.0 | 3.0 | 0.00 | 0.00 | 0.00 | 78 | 1020.5 |
| 20260510023003 | 49 | 270 | 1.0 | 3.0 | 0.00 | 0.00 | 0.00 | 77 | 1020.9 |
| 20260510022503 | 49 | 282 | 1.0 | 3.0 | 0.00 | 0.00 | 0.00 | 77 | 1020.6 |
| 20260510022003 | 49 | 259 | 1.0 | 3.0 | 0.00 | 0.00 | 0.00 | 77 | 1020.7 |
| 20260510021503 | 49 | 264 | 1.0 | 3.0 | 0.00 | 0.00 | 0.00 | 78 | 1020.5 |
| 20260510021003 | 49 | 282 | 1.0 | 3.0 | 0.00 | 0.00 | 0.00 | 77 | 1020.9 |
| 20260510020716 | 49 | 284 | 1.0 | 3.0 | 0.00 | 0.00 | 0.00 | 77 | 1020.8 |
| 20260510020004 | 49 | 270 | 1.0 | 4.0 | 0.00 | 0.00 | 0.00 | 78 | 1020.9 |
| 20260510015503 | 49 | 289 | 1.0 | 4.0 | 0.00 | 0.00 | 0.00 | 78 | 1020.8 |
| 20260510015003 | 49 | 288 | 1.0 | 4.0 | 0.00 | 0.00 | 0.00 | 78 | 1021.0 |
| 20260510014503 | 49 | 264 | 1.0 | 4.0 | 0.00 | 0.00 | 0.00 | 78 | 1020.9 |
| 20260510014217 | 49 | 253 | 1.0 | 4.0 | 0.00 | 0.00 | 0.00 | 78 | 1020.8 |
| 20260510013503 | 49 | 257 | 1.0 | 3.0 | 0.00 | 0.00 | 0.00 | 78 | 1020.9 |
| 20260510013003 | 49 | 281 | 1.0 | 3.0 | 0.00 | 0.00 | 0.00 | 79 | 1020.6 |
| 20260510012503 | 49 | 277 | 1.0 | 3.0 | 0.00 | 0.00 | 0.00 | 78 | 1020.8 |
| 20260510012217 | 49 | 289 | 1.0 | 3.0 | 0.00 | 0.00 | 0.00 | 79 | 1020.6 |
| 20260510011503 | 49 | 321 | 1.0 | 4.0 | 0.00 | 0.00 | 0.00 | 79 | 1020.7 |
| 20260510011003 | 49 | 291 | 1.0 | 4.0 | 0.00 | 0.00 | 0.00 | 79 | 1020.4 |
| 20260510010503 | 49 | 277 | 1.0 | 5.0 | 0.00 | 0.00 | 0.00 | 79 | 1020.7 |
| 20260510010217 | 49 | 280 | 1.0 | 5.0 | 0.00 | 0.00 | 0.00 | 79 | 1020.4 |
| 20260510005503 | 49 | 285 | 1.0 | 3.0 | 0.00 | 0.00 | 0.00 | 80 | 1020.8 |
| 20260510005003 | 49 | 288 | 1.0 | 3.0 | 0.00 | 0.00 | 0.00 | 80 | 1020.7 |
| 20260510004503 | 49 | 278 | 1.0 | 3.0 | 0.00 | 0.00 | 0.00 | 80 | 1020.5 |
| 20260510004003 | 49 | 287 | 1.0 | 2.0 | 0.00 | 0.00 | 0.00 | 80 | 1020.8 |
| 20260510003503 | 49 | 287 | 1.0 | 2.0 | 0.00 | 0.00 | 0.00 | 80 | 1020.5 |
| 20260510003003 | 49 | 283 | 1.0 | 3.0 | 0.00 | 0.00 | 0.00 | 81 | 1020.5 |
| 20260510002718 | 49 | 275 | 1.0 | 3.0 | 0.00 | 0.00 | 0.00 | 81 | 1020.7 |
| 20260510002216 | 50 | 287 | 1.0 | 3.0 | 0.00 | 0.00 | 0.00 | 81 | 1020.4 |
| 20260510001503 | 50 | 297 | 1.0 | 4.0 | 0.00 | 0.00 | 0.00 | 81 | 1020.7 |
| 20260510001216 | 50 | 293 | 1.0 | 4.0 | 0.00 | 0.00 | 0.00 | 81 | 1020.7 |
| 20260510000503 | 50 | 282 | 1.0 | 4.0 | 0.00 | 0.00 | 0.00 | 81 | 1020.6 |
| 20260510000003 | 50 | 278 | 1.0 | 4.0 | 0.00 | 0.00 | 0.00 | 80 | 1020.7 |
| 20260509235503 | 50 | 280 | 2.0 | 4.0 | 0.00 | 0.00 | 0.00 | 81 | 1020.7 |
| 20260509235003 | 50 | 280 | 2.0 | 4.0 | 0.00 | 0.00 | 0.00 | 81 | 1020.8 |
| 20260509234717 | 50 | 277 | 1.0 | 4.0 | 0.00 | 0.00 | 0.00 | 81 | 1020.7 |
| 20260509234003 | 50 | 271 | 1.0 | 3.0 | 0.00 | 0.00 | 0.00 | 81 | 1020.6 |
| 20260509233503 | 50 | 290 | 1.0 | 3.0 | 0.00 | 0.00 | 0.00 | 81 | 1020.7 |
| 20260509233003 | 51 | 286 | 1.0 | 3.0 | 0.00 | 0.00 | 0.00 | 81 | 1020.7 |
| 20260509232503 | 51 | 281 | 1.0 | 3.0 | 0.00 | 0.00 | 0.00 | 81 | 1020.8 |
| 20260509232003 | 51 | 285 | 1.0 | 3.0 | 0.00 | 0.00 | 0.00 | 81 | 1020.6 |
| 20260509231503 | 51 | 279 | 1.0 | 4.0 | 0.00 | 0.00 | 0.00 | 80 | 1020.8 |
| 20260509231003 | 51 | 282 | 1.0 | 4.0 | 0.00 | 0.00 | 0.00 | 80 | 1020.8 |
| 20260509230503 | 51 | 285 | 2.0 | 4.0 | 0.00 | 0.00 | 0.00 | 80 | 1020.7 |
| 20260509230003 | 51 | 275 | 2.0 | 5.0 | 0.00 | 0.00 | 0.00 | 80 | 1020.6 |
| 20260509225503 | 51 | 265 | 1.0 | 5.0 | 0.00 | 0.00 | 0.00 | 80 | 1020.3 |
| 20260509225003 | 52 | 277 | 1.0 | 4.0 | 0.00 | 0.00 | 0.00 | 80 | 1020.4 |
| 20260509224503 | 52 | 278 | 1.0 | 4.0 | 0.00 | 0.00 | 0.00 | 80 | 1020.4 |
| 20260509224003 | 52 | 258 | 1.0 | 4.0 | 0.00 | 0.00 | 0.00 | 79 | 1020.3 |
| 20260509223717 | 52 | 267 | 1.0 | 4.0 | 0.00 | 0.00 | 0.00 | 79 | 1020.3 |
| 20260509223003 | 52 | 293 | 1.0 | 5.0 | 0.00 | 0.00 | 0.00 | 79 | 1020.4 |
| 20260509222503 | 53 | 303 | 1.0 | 5.0 | 0.00 | 0.00 | 0.00 | 79 | 1020.2 |
| 20260509222003 | 53 | 303 | 1.0 | 4.0 | 0.00 | 0.00 | 0.00 | 80 | 1020.0 |
| 20260509221503 | 53 | 297 | 1.0 | 4.0 | 0.00 | 0.00 | 0.00 | 80 | 1020.2 |
| 20260509221003 | 53 | 277 | 1.0 | 4.0 | 0.00 | 0.00 | 0.00 | 79 | 1020.0 |
| 20260509220503 | 53 | 272 | 1.0 | 4.0 | 0.00 | 0.00 | 0.00 | 78 | 1020.0 |
| 20260509220003 | 53 | 284 | 1.0 | 4.0 | 0.00 | 0.00 | 0.00 | 79 | 1020.2 |
| 20260509215717 | 53 | 281 | 1.0 | 4.0 | 0.00 | 0.00 | 0.00 | 78 | 1020.2 |
| 20260509215218 | 53 | 293 | 2.0 | 4.0 | 0.00 | 0.00 | 0.00 | 79 | 1020.1 |
| 20260509214503 | 53 | 277 | 1.0 | 4.0 | 0.00 | 0.00 | 0.00 | 80 | 1020.4 |
| 20260509214003 | 53 | 279 | 2.0 | 4.0 | 0.00 | 0.00 | 0.00 | 80 | 1020.2 |
| 20260509213503 | 53 | 296 | 1.0 | 4.0 | 0.00 | 0.00 | 0.00 | 81 | 1020.2 |
| 20260509213003 | 53 | 303 | 1.0 | 4.0 | 0.00 | 0.00 | 0.00 | 82 | 1019.8 |
| 20260509212503 | 53 | 306 | 1.0 | 4.0 | 0.00 | 0.00 | 0.00 | 82 | 1019.9 |
| 20260509212218 | 53 | 315 | 1.0 | 4.0 | 0.00 | 0.00 | 0.00 | 82 | 1019.8 |
| 20260509211503 | 53 | 306 | 1.0 | 3.0 | 0.00 | 0.00 | 0.00 | 82 | 1019.9 |
| 20260509211003 | 53 | 305 | 1.0 | 3.0 | 0.00 | 0.00 | 0.00 | 82 | 1019.8 |
| 20260509210503 | 53 | 308 | 1.0 | 5.0 | 0.00 | 0.00 | 0.00 | 82 | 1019.5 |
| 20260509210217 | 53 | 303 | 1.0 | 5.0 | 0.00 | 0.00 | 0.00 | 82 | 1019.6 |
| 20260509205503 | 53 | 297 | 1.0 | 3.0 | 0.00 | 0.00 | 0.00 | 83 | 1019.6 |
| 20260509205003 | 53 | 298 | 1.0 | 3.0 | 0.00 | 0.00 | 0.00 | 82 | 1019.6 |
| 20260509204503 | 53 | 299 | 1.0 | 3.0 | 0.00 | 0.00 | 0.00 | 82 | 1019.6 |
| 20260509204003 | 53 | 300 | 1.0 | 3.0 | 0.00 | 0.00 | 0.00 | 81 | 1019.7 |
| 20260509203503 | 53 | 300 | 1.0 | 3.0 | 0.00 | 0.00 | 0.00 | 81 | 1019.7 |
| 20260509203003 | 53 | 298 | 1.0 | 3.0 | 0.00 | 0.00 | 0.00 | 81 | 1019.7 |
| 20260509202503 | 53 | 301 | 1.0 | 3.0 | 0.00 | 0.00 | 0.00 | 81 | 1019.6 |
| 20260509202003 | 54 | 306 | 1.0 | 2.0 | 0.00 | 0.00 | 0.00 | 80 | 1019.4 |